This is the latest recevied weather packets stored in our database for station/object OK1FET-15. If no packets are shown the sender has not sent any weather packets the latest 1 day(s).
| Time | Temp. | Humidity | Pressure | Rain* | Wind** | Luminosity | Snow |
|---|---|---|---|---|---|---|---|
| 1836274606 | 11.11° C | 100% | 1023.1 hPa | - | 0 m/s | - | - |
| 1836274470 | 11.67° C | 100% | 1023 hPa | - | 0 m/s | - | - |
| 1836274299 | 11.11° C | 100% | 1023.2 hPa | - | 0 m/s | - | - |
| 1836274163 | 11.11° C | 100% | 1023.1 hPa | - | 0 m/s | - | - |
| 1836273992 | 11.11° C | 100% | 1023.3 hPa | - | 0 m/s | - | - |
| 1778031255 | 10° C | 100% | 1007.1 hPa | - | 0 m/s | - | - |
| 1778030948 | 10° C | 100% | 1007 hPa | - | 0 m/s | - | - |
| 1778030641 | 10° C | 100% | 1007 hPa | - | 0 m/s | - | - |
| 1778030334 | 10° C | 100% | 1006.9 hPa | - | 0 m/s | - | - |
| 1778030027 | 10° C | 100% | 1006.8 hPa | - | 0 m/s | - | - |
| 1778029720 | 10° C | 100% | 1006.9 hPa | - | 0 m/s | - | - |
| 1778029413 | 10° C | 100% | 1006.9 hPa | - | 0 m/s | - | - |
| 1778029106 | 10° C | 100% | 1006.9 hPa | - | 0 m/s | - | - |
| 1778028799 | 10.56° C | 100% | 1006.9 hPa | - | 0 m/s | - | - |
| 1778002921 | 18.89° C | 60% | 1003.4 hPa | - | 0.89 m/s, 16° | - | - |
| 1778002596 | 18.89° C | 58% | 1003.5 hPa | - | 0.45 m/s, 6° | - | - |
| 1778002271 | 18.89° C | 56% | 1003.5 hPa | - | 0 m/s | - | - |
| 1778001946 | 19.44° C | 53% | 1003.5 hPa | - | 0 m/s | - | - |
| 1778001638 | 19.44° C | 51% | 1003.5 hPa | - | 0.45 m/s, 54° | - | - |
| 1778001330 | 20° C | 50% | 1003.6 hPa | - | 0.45 m/s, 58° | - | - |
| 1778001022 | 20° C | 48% | 1003.7 hPa | - | 0.45 m/s, 69° | - | - |
| 1778000715 | 20.56° C | 47% | 1003.6 hPa | - | 0.45 m/s, 101° | - | - |
| 1778000407 | 21.11° C | 45% | 1003.7 hPa | - | 0.45 m/s, 109° | - | - |
| 1778000099 | 21.11° C | 44% | 1003.6 hPa | - | 0 m/s | - | - |
| 1777999791 | 21.67° C | 44% | 1003.6 hPa | - | 0 m/s | - | - |
* Rain since midnight (hover to see other rain measurements)
** Current wind speed in m/s (hover to see current wind gust speed)